星链-35512(STARLINK-35512)

导读

STARLINK-35512是美国SpaceX公司星链(Starlink)星座中的一颗低轨通信卫星,于2025年11月6日发射入轨。星链星座旨在为全球提供宽带互联网接入服务,该卫星采用平板设计,搭载Ku/Ka波段通信载荷,配备氪工质霍尔推进器,具备自主避撞能力,设计使用寿命约5-7年,退役后会主动离轨再入大气层烧毁,服务全球组网的高速卫星互联网覆盖。

基本信息
目录编号:
66330
目录名称:
STARLINK-35512
国际标识:
2025-253M
轨道中心:
EARTH
卫星名称:
星链-35512
卫星全名:
星链-35512(STARLINK-35512)
卫星状态:
在轨 (已飞行219 天)
发射日期:
2025-11-06 UTC
国别 :
美国 (US)
星等 :
--
轨道信息
数据来源 国际轨道数据
星历时间: 2026-06-13T04:00:02+0800
14小时前
查看轨道信息
半长轴: 6861.235km
偏心率: 0.0001468
轨道倾角: 43.003°
近地点辐角 281.591°
升交点赤经 35.385°
平近点角 65.109°
近地点: 482.09km
远地点: 484.106km
周期: 94.268分钟
每日圈数: 15.275639
详细信息
固有亮度:
5
最大亮度:
2.5
卫星平台:
Starlink V1.0
覆盖范围:
全球
运营商:
太空探索技术公司
运营商所在国:
美国
制造商(研发单位):
太空探索技术公司
制造商所在国:
美国
使用方式:
暂无
卫星简介
Starlink 计划是 SpaceX 推出的全球卫星互联网项目,通过发射低轨道卫星,为全球尤其是偏远地区提供高速、低延迟的互联网服务。自 2019 年起,Starlink 已部署数千颗卫星,旨在缩小全球数字鸿沟,推动互联网普及。该项目还为军事、航空等行业提供通信支持,带来广泛经济效益。
2D轨道图
3D轨道图
轨道高度分析图
轨道倾角分析图
轨道综合分析图
查看轨道综合分析图